THOR BURNER 2 R/B

Satellite information

Favourite Embed

Satellite Type and Status

ROCKET BODYIN ORBIT

Key statistics

Satellite THOR BURNER 2 R/B at a glance.

Uptime

21079

Days in orbit

Revolutions

≈ 14.2

Per day

Orbit

SSO

Sun Synchronous Orbit

Inclination

98.5

Latest

Satellite identification and parameters

Extended collection of information and parameters for THOR BURNER 2 R/B.

Object identification

Identified? True

Debris? False

Object name: THOR BURNER 2 R/B

International designator: 1967-080B

Object number (NORAD): 2940

Object ID (CCSDS): 2940

Country: UNITED STATES OF AMERICA (US)

Current information (Y/N): Y

RCS size: LARGE

Orbital parameters

Period: 101.615 minutes

Inclination: 98.5484 deg

SMA: 7213.264 km

Apoapsis: 861.305 km

Periapsis: 808.953 km

RAAN: 325.4238 deg

Eccentricy: 0.0036289

Argument of periapsis: 295.9248 deg

Mean anomaly: 63.8189 deg

Mean motion: 14.1711475 rev/day

Mean motion (dot): 0.00000167 rev/day2

B* drag term: 0.00010307 1/REarth

Two-line elements (TLE)

Creation date: May 8, 2025, 3:01 a.m.

Reference frame: TEME

Reference center: EARTH

Epoch: May 7, 2025, 10:41 p.m. UTC

TLE line 0: 0 THOR BURNER 2 R/B

TLE line 1: 1 02940U 67080B 25127.94514930 .00000167 00000-0 10307-3 0 9996

TLE line 2: 2 02940 98.5484 325.4238 0036289 295.9248 63.8189 14.17114750977581

Live tracking on map

Real-time ground track for satellite THOR BURNER 2 R/B.

In-orbit conjunctions

A list of the most updated potential collisions computed for object THOR BURNER 2 R/B.

Target Orbit TCA Probability of collision Miss distance Type
DMSP 5D-2 F13 DEB SSO 2025-04-20 15:30:56 0.0001489908 156.0 (m) DEBRIS
CZ-6A DEB LEO 2024-12-06 15:45:46 0.0009019625 383.0 (m) DEBRIS
CZ-6A DEB LEO 2024-11-27 23:15:20 0.0001166117 516.0 (m) DEBRIS
METEOR 1-17 DEB LEO 2024-08-05 12:19:19 0.0009578397 118.0 (m) DEBRIS

Associated space launch

DSAP-4A (Defense Satellite Application Program Block 4A) was the fourth version of the military meteorological satellites of the Defense Meteorological Satellite Program.

THOR BURNER 2 R/B was lifted into orbit during the mission ‘Thor Burner 2 | DSAP-4A F3’, on board a Thor Burner 2 space rocket.

The launch took place on Aug. 23, 1967, 4:41 a.m. from Space Launch Complex 10W.

For more information about the launch, click the button.

Launch to space Thor Burner 2 | DSAP-4A F3
Thor Burner 2 | DSAP-4A F3

Agency: N/A

Status: Launch Successful

Launch date: Aug. 23, 1967, 4:41 a.m. UTC

Rocket: Thor Burner 2

Launch pad: Space Launch Complex 10W

Location: Vandenberg SFB, CA, USA

...

Latest news about this satellite

There are no fresh news available about this satellite. Check back as we update our databases every day.


Newsletter sign-up

Weekly statistics, charts and insights to help you stay on top of the space industry.